Time,TemperatureF,DewpointF,PressureIn,WindDirection,WindDirectionDegrees,WindSpeedMPH,WindSpeedGustMPH,Humidity,HourlyPrecipIn,Conditions,Clouds,dailyrainin,SoftwareType,DateUTC
2013-07-07 00:01:00,79.2,74.3,30.08,NNE,30,1.0,4.0,85,0.00,,SKC,0.00,VWS V14.01,2013-07-07 04:01:00,
2013-07-07 00:02:00,79.1,74.2,30.08,ESE,103,0.0,6.0,85,0.00,,SKC,0.00,VWS V14.01,2013-07-07 04:02:00,
2013-07-07 00:07:00,79.0,74.5,30.08,East,101,2.0,9.0,86,0.00,,SKC,0.00,VWS V14.01,2013-07-07 04:07:00,
2013-07-07 00:12:00,78.9,74.4,30.08,ENE,71,2.0,9.0,86,0.00,,SKC,0.00,VWS V14.01,2013-07-07 04:12:00,
2013-07-07 00:17:00,78.8,74.3,30.08,ENE,67,7.0,9.0,86,0.00,,SKC,0.00,VWS V14.01,2013-07-07 04:17:00,
2013-07-07 00:22:00,78.8,74.6,30.08,NE,54,4.0,9.0,87,0.00,,SKC,0.00,VWS V14.01,2013-07-07 04:22:00,
2013-07-07 00:27:00,78.7,74.5,30.08,East,83,5.0,9.0,87,0.00,,SKC,0.00,VWS V14.01,2013-07-07 04:27:00,
2013-07-07 00:32:00,78.7,74.5,30.08,ESE,118,6.0,7.0,87,0.00,,SKC,0.00,VWS V14.01,2013-07-07 04:32:00,
2013-07-07 00:37:00,78.6,74.8,30.07,East,81,6.0,8.0,88,0.00,,SKC,0.00,VWS V14.01,2013-07-07 04:37:00,
2013-07-07 00:42:00,78.5,74.7,30.07,ESE,109,5.0,8.0,88,0.00,,SKC,0.00,VWS V14.01,2013-07-07 04:42:00,
2013-07-07 00:47:00,78.5,74.7,30.07,ENE,74,6.0,9.0,88,0.00,,SKC,0.00,VWS V14.01,2013-07-07 04:47:00,
2013-07-07 00:52:00,78.4,74.6,30.07,ENE,64,4.0,9.0,88,0.00,,SKC,0.00,VWS V14.01,2013-07-07 04:52:00,
2013-07-07 00:57:00,78.3,74.5,30.07,ENE,68,1.0,9.0,88,0.00,,SKC,0.00,VWS V14.01,2013-07-07 04:57:00,
2013-07-07 01:02:00,78.2,74.4,30.06,ENE,62,2.0,8.0,88,0.00,,SKC,0.00,VWS V14.01,2013-07-07 05:02:00,
2013-07-07 01:07:00,78.1,74.6,30.06,NE,44,5.0,8.0,89,0.00,,SKC,0.00,VWS V14.01,2013-07-07 05:07:00,
2013-07-07 01:12:00,78.1,74.6,30.06,East,92,1.0,8.0,89,0.00,,SKC,0.00,VWS V14.01,2013-07-07 05:12:00,
2013-07-07 01:17:00,78.0,74.5,30.06,NE,40,3.0,8.0,89,0.00,,SKC,0.00,VWS V14.01,2013-07-07 05:17:00,
2013-07-07 01:22:00,77.9,74.4,30.06,NE,54,1.0,9.0,89,0.00,,SKC,0.00,VWS V14.01,2013-07-07 05:22:00,
2013-07-07 01:27:00,77.9,74.4,30.06,East,86,2.0,9.0,89,0.00,,SKC,0.00,VWS V14.01,2013-07-07 05:27:00,
2013-07-07 01:32:00,77.9,74.4,30.06,ENE,78,1.0,8.0,89,0.00,,SKC,0.00,VWS V14.01,2013-07-07 05:32:00,
2013-07-07 01:37:00,77.9,74.7,30.06,ENE,71,4.0,9.0,90,0.00,,SKC,0.00,VWS V14.01,2013-07-07 05:37:00,
2013-07-07 01:42:00,77.8,74.6,30.06,ENE,74,1.0,9.0,90,0.00,,SKC,0.00,VWS V14.01,2013-07-07 05:42:00,
2013-07-07 01:47:00,77.8,74.6,30.06,NNE,26,5.0,9.0,90,0.00,,SKC,0.00,VWS V14.01,2013-07-07 05:47:00,
2013-07-07 01:52:00,77.8,74.6,30.06,ENE,62,1.0,9.0,90,0.00,,SKC,0.00,VWS V14.01,2013-07-07 05:52:00,
2013-07-07 01:57:00,77.8,74.6,30.06,ESE,109,1.0,9.0,90,0.00,,SKC,0.00,VWS V14.01,2013-07-07 05:57:00,
2013-07-07 02:02:00,77.7,74.5,30.06,NE,50,2.0,2.0,90,0.00,,SKC,0.00,VWS V14.01,2013-07-07 06:02:00,
2013-07-07 02:07:00,77.6,74.4,30.06,ENE,71,4.0,5.0,90,0.00,,SKC,0.00,VWS V14.01,2013-07-07 06:07:00,
2013-07-07 02:12:00,77.6,74.4,30.06,East,82,0.0,5.0,90,0.00,,SKC,0.00,VWS V14.01,2013-07-07 06:12:00,
2013-07-07 02:17:00,77.6,74.4,30.06,ENE,78,0.0,5.0,90,0.00,,SKC,0.00,VWS V14.01,2013-07-07 06:17:00,
2013-07-07 02:22:00,77.5,74.3,30.06,ENE,65,4.0,5.0,90,0.00,,SKC,0.00,VWS V14.01,2013-07-07 06:22:00,
2013-07-07 02:27:00,77.5,74.3,30.06,ENE,76,0.0,5.0,90,0.00,,SKC,0.00,VWS V14.01,2013-07-07 06:27:00,
2013-07-07 02:32:00,77.5,74.3,30.06,ESE,123,1.0,4.0,90,0.00,,SKC,0.00,VWS V14.01,2013-07-07 06:32:00,
2013-07-07 02:37:00,77.4,74.2,30.06,NNE,21,0.0,4.0,90,0.00,,SKC,0.00,VWS V14.01,2013-07-07 06:37:00,
2013-07-07 02:42:00,77.4,74.2,30.05,East,98,0.0,4.0,90,0.00,,SKC,0.00,VWS V14.01,2013-07-07 06:42:00,
2013-07-07 02:47:00,77.3,74.1,30.06,NE,38,0.0,4.0,90,0.00,,SKC,0.00,VWS V14.01,2013-07-07 06:47:00,
2013-07-07 02:52:00,77.3,74.5,30.06,ENE,64,0.0,4.0,91,0.00,,SKC,0.00,VWS V14.01,2013-07-07 06:52:00,
2013-07-07 02:57:00,77.3,74.5,30.05,ENE,58,1.0,5.0,91,0.00,,SKC,0.00,VWS V14.01,2013-07-07 06:57:00,
2013-07-07 03:02:00,77.2,74.4,30.05,NE,39,1.0,5.0,91,0.00,,SKC,0.00,VWS V14.01,2013-07-07 07:02:00,
2013-07-07 03:07:00,77.2,74.4,30.05,NE,43,0.0,5.0,91,0.00,,SKC,0.00,VWS V14.01,2013-07-07 07:07:00,
2013-07-07 03:12:00,77.1,74.3,30.05,NE,45,3.0,5.0,91,0.00,,SKC,0.00,VWS V14.01,2013-07-07 07:12:00,
2013-07-07 03:17:00,77.1,74.3,30.04,NE,56,0.0,5.0,91,0.00,,SKC,0.00,VWS V14.01,2013-07-07 07:17:00,
2013-07-07 03:22:00,77.0,74.5,30.05,NE,40,1.0,6.0,92,0.00,,SKC,0.00,VWS V14.01,2013-07-07 07:22:00,
2013-07-07 03:27:00,77.0,74.5,30.04,ENE,62,1.0,6.0,92,0.00,,SKC,0.00,VWS V14.01,2013-07-07 07:27:00,
2013-07-07 03:32:00,76.9,74.4,30.04,ENE,65,2.0,4.0,92,0.00,,SKC,0.00,VWS V14.01,2013-07-07 07:32:00,
2013-07-07 03:37:00,76.8,74.3,30.04,NE,38,4.0,5.0,92,0.00,,SKC,0.00,VWS V14.01,2013-07-07 07:37:00,
2013-07-07 03:42:00,76.7,74.2,30.04,NE,34,2.0,6.0,92,0.00,,SKC,0.00,VWS V14.01,2013-07-07 07:42:00,
2013-07-07 03:47:00,76.7,74.5,30.03,NE,38,2.0,7.0,93,0.00,,SKC,0.00,VWS V14.01,2013-07-07 07:47:00,
2013-07-07 03:52:00,76.6,74.4,30.03,NNE,23,5.0,7.0,93,0.00,,SKC,0.00,VWS V14.01,2013-07-07 07:52:00,
2013-07-07 03:57:00,76.6,74.4,30.03,NE,34,1.0,7.0,93,0.00,,SKC,0.00,VWS V14.01,2013-07-07 07:57:00,
2013-07-07 04:02:00,76.5,74.3,30.03,NNE,24,1.0,6.0,93,0.00,,SKC,0.00,VWS V14.01,2013-07-07 08:02:00,
2013-07-07 04:07:00,76.5,74.3,30.03,NNE,28,1.0,6.0,93,0.00,,SKC,0.00,VWS V14.01,2013-07-07 08:07:00,
2013-07-07 04:12:00,76.5,74.3,30.03,NE,49,1.0,7.0,93,0.00,,SKC,0.00,VWS V14.01,2013-07-07 08:12:00,
2013-07-07 04:17:00,76.5,74.3,30.03,NE,47,2.0,7.0,93,0.00,,SKC,0.00,VWS V14.01,2013-07-07 08:17:00,
2013-07-07 04:22:00,76.5,74.3,30.03,NE,46,1.0,7.0,93,0.00,,SKC,0.00,VWS V14.01,2013-07-07 08:22:00,
2013-07-07 04:27:00,76.5,74.3,30.03,ENE,57,1.0,7.0,93,0.00,,SKC,0.00,VWS V14.01,2013-07-07 08:27:00,
2013-07-07 04:32:00,76.5,74.3,30.03,NE,38,1.0,3.0,93,0.00,,SKC,0.00,VWS V14.01,2013-07-07 08:32:00,
2013-07-07 04:37:00,76.4,74.2,30.03,ENE,67,2.0,5.0,93,0.00,,SKC,0.00,VWS V14.01,2013-07-07 08:37:00,
2013-07-07 04:42:00,76.4,74.2,30.03,NE,44,2.0,5.0,93,0.00,,SKC,0.00,VWS V14.01,2013-07-07 08:42:00,
2013-07-07 04:47:00,76.4,74.2,30.03,ENE,57,0.0,5.0,93,0.00,,SKC,0.00,VWS V14.01,2013-07-07 08:47:00,
2013-07-07 04:52:00,76.4,74.2,30.03,NE,53,1.0,5.0,93,0.00,,SKC,0.00,VWS V14.01,2013-07-07 08:52:00,
2013-07-07 04:57:00,76.5,74.3,30.03,NE,34,5.0,6.0,93,0.00,,SKC,0.00,VWS V14.01,2013-07-07 08:57:00,
2013-07-07 05:02:00,76.5,74.3,30.03,NE,49,2.0,4.0,93,0.00,,SKC,0.00,VWS V14.01,2013-07-07 09:02:00,
2013-07-07 05:07:00,76.5,74.3,30.03,ENE,58,1.0,6.0,93,0.00,,SKC,0.00,VWS V14.01,2013-07-07 09:07:00,
2013-07-07 05:12:00,76.5,74.0,30.03,East,79,2.0,6.0,92,0.00,,SKC,0.00,VWS V14.01,2013-07-07 09:12:00,
2013-07-07 05:17:00,76.5,74.0,30.03,NE,44,0.0,6.0,92,0.00,,SKC,0.00,VWS V14.01,2013-07-07 09:17:00,
2013-07-07 05:22:00,76.4,73.9,30.03,NE,42,2.0,6.0,92,0.00,,SKC,0.00,VWS V14.01,2013-07-07 09:22:00,
2013-07-07 05:27:00,76.4,73.9,30.03,East,86,4.0,7.0,92,0.00,,SKC,0.00,VWS V14.01,2013-07-07 09:27:00,
2013-07-07 05:32:00,76.4,73.9,30.03,NE,40,2.0,5.0,92,0.00,,SKC,0.00,VWS V14.01,2013-07-07 09:32:00,
2013-07-07 05:37:00,76.4,73.9,30.03,ENE,61,4.0,6.0,92,0.00,,SKC,0.00,VWS V14.01,2013-07-07 09:37:00,
2013-07-07 05:42:00,76.4,73.9,30.03,NNE,32,1.0,6.0,92,0.00,,SKC,0.00,VWS V14.01,2013-07-07 09:42:00,
2013-07-07 05:47:00,76.3,73.8,30.03,NE,44,1.0,6.0,92,0.00,,SKC,0.00,VWS V14.01,2013-07-07 09:47:00,
2013-07-07 05:52:00,76.2,74.0,30.03,ENE,61,4.0,6.0,93,0.00,,SKC,0.00,VWS V14.01,2013-07-07 09:52:00,
2013-07-07 05:57:00,76.3,74.1,30.03,NE,44,0.0,8.0,93,0.00,,SKC,0.00,VWS V14.01,2013-07-07 09:57:00,
2013-07-07 06:02:00,76.3,74.1,30.03,NE,46,8.0,8.0,93,0.00,,SKC,0.00,VWS V14.01,2013-07-07 10:02:00,
2013-07-07 06:07:00,76.2,74.0,30.03,NNW,337,1.0,8.0,93,0.00,,SKC,0.00,VWS V14.01,2013-07-07 10:07:00,
2013-07-07 06:12:00,76.2,74.0,30.03,ENE,74,2.0,8.0,93,0.00,,SKC,0.00,VWS V14.01,2013-07-07 10:12:00,
2013-07-07 06:17:00,76.2,74.0,30.03,ENE,69,1.0,8.0,93,0.00,,SKC,0.00,VWS V14.01,2013-07-07 10:17:00,
2013-07-07 06:22:00,76.2,74.0,30.03,East,92,6.0,8.0,93,0.00,,SKC,0.00,VWS V14.01,2013-07-07 10:22:00,
2013-07-07 06:27:00,76.2,74.0,30.03,NE,45,2.0,8.0,93,0.00,,SKC,0.00,VWS V14.01,2013-07-07 10:27:00,
2013-07-07 06:32:00,76.3,74.1,30.04,ESE,108,1.0,3.0,93,0.00,,SKC,0.00,VWS V14.01,2013-07-07 10:32:00,
2013-07-07 06:37:00,76.3,74.1,30.04,East,96,0.0,5.0,93,0.00,,SKC,0.00,VWS V14.01,2013-07-07 10:37:00,
2013-07-07 06:42:00,76.3,74.1,30.04,ENE,74,1.0,5.0,93,0.00,,SKC,0.00,VWS V14.01,2013-07-07 10:42:00,
2013-07-07 06:47:00,76.3,74.1,30.04,ENE,57,1.0,6.0,93,0.00,,SKC,0.00,VWS V14.01,2013-07-07 10:47:00,
2013-07-07 06:52:00,76.3,74.1,30.04,NE,43,2.0,6.0,93,0.00,,SKC,0.00,VWS V14.01,2013-07-07 10:52:00,
2013-07-07 06:57:00,76.4,74.2,30.04,ENE,58,4.0,6.0,93,0.00,,SKC,0.00,VWS V14.01,2013-07-07 10:57:00,
2013-07-07 07:02:00,76.5,74.3,30.04,NE,46,2.0,5.0,93,0.00,,SKC,0.00,VWS V14.01,2013-07-07 11:02:00,
2013-07-07 07:07:00,76.7,74.2,30.04,NE,49,4.0,6.0,92,0.00,,SKC,0.00,VWS V14.01,2013-07-07 11:07:00,
2013-07-07 07:12:00,77.0,74.5,30.04,NE,34,1.0,6.0,92,0.00,,SKC,0.00,VWS V14.01,2013-07-07 11:12:00,
2013-07-07 07:17:00,77.2,74.7,30.04,NE,53,5.0,8.0,92,0.00,,SKC,0.00,VWS V14.01,2013-07-07 11:17:00,
2013-07-07 07:22:00,77.5,74.7,30.04,ENE,63,6.0,9.0,91,0.00,,SKC,0.00,VWS V14.01,2013-07-07 11:22:00,
2013-07-07 07:27:00,77.7,74.5,30.04,NE,55,6.0,9.0,90,0.00,,SKC,0.00,VWS V14.01,2013-07-07 11:27:00,
2013-07-07 07:32:00,78.0,74.8,30.04,ENE,67,4.0,9.0,90,0.00,,SKC,0.00,VWS V14.01,2013-07-07 11:32:00,
2013-07-07 07:37:00,78.3,74.8,30.05,NNE,31,3.0,10.0,89,0.00,,SKC,0.00,VWS V14.01,2013-07-07 11:37:00,
2013-07-07 07:42:00,78.6,74.8,30.05,NE,53,5.0,10.0,88,0.00,,SKC,0.00,VWS V14.01,2013-07-07 11:42:00,
2013-07-07 07:47:00,78.9,75.1,30.05,NE,48,2.0,10.0,88,0.00,,SKC,0.00,VWS V14.01,2013-07-07 11:47:00,
2013-07-07 07:52:00,79.2,75.0,30.05,NE,53,4.0,10.0,87,0.00,,SKC,0.00,VWS V14.01,2013-07-07 11:52:00,
2013-07-07 07:57:00,79.6,75.1,30.05,ENE,70,6.0,10.0,86,0.00,,SKC,0.00,VWS V14.01,2013-07-07 11:57:00,
2013-07-07 08:02:00,79.7,75.2,30.05,ENE,64,5.0,10.0,86,0.00,,SKC,0.00,VWS V14.01,2013-07-07 12:02:00,
2013-07-07 08:07:00,79.9,75.3,30.05,East,81,5.0,11.0,86,0.00,,SKC,0.00,VWS V14.01,2013-07-07 12:07:00,
2013-07-07 08:12:00,80.1,75.2,30.05,ENE,68,3.0,12.0,85,0.00,,SKC,0.00,VWS V14.01,2013-07-07 12:12:00,
2013-07-07 08:17:00,80.4,75.5,30.05,East,88,6.0,12.0,85,0.00,,SKC,0.00,VWS V14.01,2013-07-07 12:17:00,
2013-07-07 08:23:00,80.7,75.4,30.06,SE,136,8.0,12.0,84,0.00,,SKC,0.00,VWS V14.01,2013-07-07 12:23:00,
2013-07-07 08:28:00,80.9,75.6,30.06,ENE,67,8.0,12.0,84,0.00,,SKC,0.00,VWS V14.01,2013-07-07 12:28:00,
2013-07-07 08:32:00,81.3,75.7,30.06,ENE,62,9.0,9.0,83,0.00,,SKC,0.00,VWS V14.01,2013-07-07 12:32:00,
2013-07-07 08:33:00,81.3,75.7,30.06,NE,48,10.0,10.0,83,0.00,,SKC,0.00,VWS V14.01,2013-07-07 12:33:00,
2013-07-07 08:38:00,81.4,75.4,30.06,ENE,71,4.0,12.0,82,0.00,,SKC,0.00,VWS V14.01,2013-07-07 12:38:00,
2013-07-07 08:43:00,81.7,75.7,30.06,East,80,12.0,12.0,82,0.00,,SKC,0.00,VWS V14.01,2013-07-07 12:43:00,
2013-07-07 08:48:00,82.1,76.1,30.06,ENE,72,8.0,12.0,82,0.00,,SKC,0.00,VWS V14.01,2013-07-07 12:48:00,
2013-07-07 08:53:00,82.5,76.1,30.06,East,81,2.0,12.0,81,0.00,,SKC,0.00,VWS V14.01,2013-07-07 12:53:00,
2013-07-07 08:58:00,82.8,76.0,30.07,ESE,118,8.0,12.0,80,0.00,,SKC,0.00,VWS V14.01,2013-07-07 12:58:00,
2013-07-07 09:03:00,83.0,75.8,30.07,East,83,7.0,12.0,79,0.00,,SKC,0.00,VWS V14.01,2013-07-07 13:03:00,
2013-07-07 09:08:00,83.0,75.4,30.07,ESE,107,6.0,13.0,78,0.00,,SKC,0.00,VWS V14.01,2013-07-07 13:08:00,
2013-07-07 09:13:00,83.2,75.6,30.07,NE,42,9.0,13.0,78,0.00,,SKC,0.00,VWS V14.01,2013-07-07 13:13:00,
2013-07-07 09:18:00,83.1,75.9,30.07,ENE,64,10.0,16.0,79,0.00,,SKC,0.00,VWS V14.01,2013-07-07 13:18:00,
2013-07-07 09:23:00,83.0,75.4,30.07,East,92,6.0,16.0,78,0.00,,SKC,0.00,VWS V14.01,2013-07-07 13:23:00,
2013-07-07 09:28:00,83.4,75.8,30.07,ENE,71,7.0,16.0,78,0.00,,SKC,0.00,VWS V14.01,2013-07-07 13:28:00,
2013-07-07 09:33:00,83.8,75.8,30.07,NNE,31,11.0,14.0,77,0.00,,SKC,0.00,VWS V14.01,2013-07-07 13:33:00,
2013-07-07 09:38:00,83.7,75.7,30.06,ENE,59,10.0,16.0,77,0.00,,SKC,0.00,VWS V14.01,2013-07-07 13:38:00,
2013-07-07 09:43:00,83.9,75.9,30.06,ESE,123,7.0,16.0,77,0.00,,SKC,0.00,VWS V14.01,2013-07-07 13:43:00,
2013-07-07 09:48:00,84.2,75.8,30.06,NNE,32,9.0,16.0,76,0.00,,SKC,0.00,VWS V14.01,2013-07-07 13:48:00,
2013-07-07 09:53:00,83.9,75.5,30.06,East,94,8.0,16.0,76,0.00,,SKC,0.00,VWS V14.01,2013-07-07 13:53:00,
2013-07-07 09:58:00,84.3,75.9,30.06,East,89,8.0,16.0,76,0.00,,SKC,0.00,VWS V14.01,2013-07-07 13:58:00,
2013-07-07 10:03:00,84.6,75.8,30.06,NE,53,5.0,15.0,75,0.00,,SKC,0.00,VWS V14.01,2013-07-07 14:03:00,
2013-07-07 10:08:00,84.9,75.7,30.06,East,90,7.0,15.0,74,0.00,,SKC,0.00,VWS V14.01,2013-07-07 14:08:00,
2013-07-07 10:13:00,84.9,75.3,30.06,ENE,58,9.0,16.0,73,0.00,,SKC,0.00,VWS V14.01,2013-07-07 14:13:00,
2013-07-07 10:18:00,85.0,75.4,30.06,ENE,72,6.0,16.0,73,0.00,,SKC,0.00,VWS V14.01,2013-07-07 14:18:00,
2013-07-07 10:23:00,84.7,75.5,30.06,ENE,72,6.0,16.0,74,0.00,,SKC,0.00,VWS V14.01,2013-07-07 14:23:00,
2013-07-07 10:28:00,85.0,75.4,30.06,ESE,123,9.0,16.0,73,0.00,,SKC,0.00,VWS V14.01,2013-07-07 14:28:00,
2013-07-07 10:33:00,84.8,74.8,30.07,East,80,8.0,15.0,72,0.00,,SKC,0.00,VWS V14.01,2013-07-07 14:33:00,
2013-07-07 10:38:00,85.0,75.0,30.06,ENE,74,8.0,15.0,72,0.00,,SKC,0.00,VWS V14.01,2013-07-07 14:38:00,
2013-07-07 10:43:00,85.1,74.6,30.07,ENE,61,15.0,15.0,71,0.00,,SKC,0.00,VWS V14.01,2013-07-07 14:43:00,
2013-07-07 10:48:00,85.2,74.7,30.06,North,349,8.0,18.0,71,0.00,,SKC,0.00,VWS V14.01,2013-07-07 14:48:00,
2013-07-07 10:53:00,86.0,75.5,30.06,ESE,107,5.0,18.0,71,0.00,,SKC,0.00,VWS V14.01,2013-07-07 14:53:00,
2013-07-07 10:58:00,86.2,74.8,30.06,ESE,103,10.0,18.0,69,0.00,,SKC,0.00,VWS V14.01,2013-07-07 14:58:00,
2013-07-07 11:03:00,86.5,74.2,30.06,NE,45,13.0,18.0,67,0.00,,SKC,0.00,VWS V14.01,2013-07-07 15:03:00,
2013-07-07 11:08:00,86.8,74.5,30.06,ENE,75,10.0,18.0,67,0.00,,SKC,0.00,VWS V14.01,2013-07-07 15:08:00,
2013-07-07 11:13:00,87.3,75.0,30.06,ENE,59,9.0,18.0,67,0.00,,SKC,0.00,VWS V14.01,2013-07-07 15:13:00,
2013-07-07 11:18:00,87.0,74.3,30.06,ENE,68,10.0,18.0,66,0.00,,SKC,0.00,VWS V14.01,2013-07-07 15:18:00,
2013-07-07 11:23:00,87.5,74.3,30.06,ENE,58,8.0,18.0,65,0.00,,SKC,0.00,VWS V14.01,2013-07-07 15:23:00,
2013-07-07 11:28:00,87.7,73.6,30.06,ENE,64,14.0,18.0,63,0.00,,SKC,0.00,VWS V14.01,2013-07-07 15:28:00,
2013-07-07 11:33:00,87.9,74.2,30.06,ENE,61,10.0,12.0,64,0.00,,SKC,0.00,VWS V14.01,2013-07-07 15:33:00,
2013-07-07 11:38:00,88.2,74.0,30.06,NE,46,9.0,18.0,63,0.00,,SKC,0.00,VWS V14.01,2013-07-07 15:38:00,
2013-07-07 11:43:00,88.2,74.5,30.06,NE,56,15.0,20.0,64,0.00,,SKC,0.00,VWS V14.01,2013-07-07 15:43:00,
2013-07-07 11:48:00,87.9,74.2,30.06,NNE,32,11.0,20.0,64,0.00,,SKC,0.00,VWS V14.01,2013-07-07 15:48:00,
2013-07-07 11:53:00,88.1,74.4,30.06,ENE,69,6.0,20.0,64,0.00,,SKC,0.00,VWS V14.01,2013-07-07 15:53:00,
2013-07-07 11:58:00,88.3,73.6,30.06,NE,56,8.0,20.0,62,0.00,,SKC,0.00,VWS V14.01,2013-07-07 15:58:00,
2013-07-07 12:03:00,88.9,74.2,30.06,ESE,121,5.0,13.0,62,0.00,,SKC,0.00,VWS V14.01,2013-07-07 16:03:00,
2013-07-07 12:08:00,88.9,73.2,30.06,ENE,63,14.0,20.0,60,0.00,,SKC,0.00,VWS V14.01,2013-07-07 16:08:00,
2013-07-07 12:13:00,88.9,74.2,30.06,East,83,12.0,20.0,62,0.00,,SKC,0.00,VWS V14.01,2013-07-07 16:13:00,
2013-07-07 12:18:00,89.2,74.5,30.06,ENE,62,18.0,20.0,62,0.00,,SKC,0.00,VWS V14.01,2013-07-07 16:18:00,
2013-07-07 12:23:00,89.5,73.8,30.05,NE,56,10.0,20.0,60,0.00,,SKC,0.00,VWS V14.01,2013-07-07 16:23:00,
2013-07-07 12:28:00,90.0,74.8,30.05,ESE,115,6.0,20.0,61,0.00,,SKC,0.00,VWS V14.01,2013-07-07 16:28:00,
2013-07-07 12:33:00,90.4,75.1,30.05,NNE,28,6.0,18.0,61,0.00,,SKC,0.00,VWS V14.01,2013-07-07 16:33:00,
2013-07-07 12:38:00,89.2,74.0,30.05,ENE,59,10.0,18.0,61,0.00,,SKC,0.00,VWS V14.01,2013-07-07 16:38:00,
2013-07-07 12:43:00,88.9,74.2,30.05,NE,35,8.0,18.0,62,0.00,,SKC,0.00,VWS V14.01,2013-07-07 16:43:00,
2013-07-07 12:48:00,89.0,74.3,30.05,NE,55,10.0,18.0,62,0.00,,SKC,0.00,VWS V14.01,2013-07-07 16:48:00,
2013-07-07 12:53:00,89.3,74.6,30.05,NE,45,9.0,18.0,62,0.00,,SKC,0.00,VWS V14.01,2013-07-07 16:53:00,
2013-07-07 12:58:00,89.9,75.1,30.05,NE,53,6.0,18.0,62,0.00,,SKC,0.00,VWS V14.01,2013-07-07 16:58:00,
2013-07-07 13:03:00,90.1,74.8,30.05,NNE,28,5.0,14.0,61,0.00,,SKC,0.00,VWS V14.01,2013-07-07 17:03:00,
2013-07-07 13:08:00,90.0,74.8,30.04,ENE,62,5.0,16.0,61,0.00,,SKC,0.00,VWS V14.01,2013-07-07 17:08:00,
2013-07-07 13:13:00,90.2,75.4,30.04,ENE,74,14.0,16.0,62,0.00,,SKC,0.00,VWS V14.01,2013-07-07 17:13:00,
2013-07-07 13:18:00,90.4,75.1,30.04,SSE,148,5.0,18.0,61,0.00,,SKC,0.00,VWS V14.01,2013-07-07 17:18:00,
2013-07-07 13:23:00,89.4,74.2,30.04,NE,55,6.0,19.0,61,0.00,,SKC,0.00,VWS V14.01,2013-07-07 17:23:00,
2013-07-07 13:28:00,90.1,75.3,30.04,NNE,22,4.0,19.0,62,0.00,,SKC,0.00,VWS V14.01,2013-07-07 17:28:00,
2013-07-07 13:33:00,90.6,74.3,30.04,East,94,7.0,15.0,59,0.00,,SKC,0.00,VWS V14.01,2013-07-07 17:33:00,
2013-07-07 13:38:00,90.3,74.5,30.04,NE,38,13.0,18.0,60,0.00,,SKC,0.00,VWS V14.01,2013-07-07 17:38:00,
2013-07-07 13:43:00,89.9,74.7,30.04,NNE,32,2.0,22.0,61,0.00,,SKC,0.00,VWS V14.01,2013-07-07 17:43:00,
2013-07-07 13:48:00,89.7,74.5,30.04,East,80,13.0,22.0,61,0.00,,SKC,0.00,VWS V14.01,2013-07-07 17:48:00,
2013-07-07 13:53:00,89.1,74.9,30.04,ENE,65,10.0,22.0,63,0.00,,SKC,0.00,VWS V14.01,2013-07-07 17:53:00,
2013-07-07 13:58:00,89.5,74.8,30.03,ENE,63,13.0,22.0,62,0.00,,SKC,0.00,VWS V14.01,2013-07-07 17:58:00,
2013-07-07 14:03:00,89.4,73.7,30.03,ENE,68,8.0,20.0,60,0.00,,SKC,0.00,VWS V14.01,2013-07-07 18:03:00,
2013-07-07 14:08:00,90.0,74.3,30.03,ENE,67,11.0,20.0,60,0.00,,SKC,0.00,VWS V14.01,2013-07-07 18:08:00,
2013-07-07 14:13:00,90.3,74.0,30.03,ESE,118,5.0,20.0,59,0.00,,SKC,0.00,VWS V14.01,2013-07-07 18:13:00,
2013-07-07 14:18:00,90.9,73.6,30.03,ENE,69,13.0,20.0,57,0.00,,SKC,0.00,VWS V14.01,2013-07-07 18:18:00,
2013-07-07 14:23:00,90.9,72.0,30.02,NNE,18,13.0,23.0,54,0.00,,SKC,0.00,VWS V14.01,2013-07-07 18:23:00,
2013-07-07 14:28:00,91.3,71.8,30.02,NE,53,16.0,23.0,53,0.00,,SKC,0.00,VWS V14.01,2013-07-07 18:28:00,
2013-07-07 14:33:00,92.0,73.0,30.02,ENE,62,12.0,12.0,54,0.00,,SKC,0.00,VWS V14.01,2013-07-07 18:33:00,
2013-07-07 14:38:00,92.3,72.7,30.02,NE,51,8.0,18.0,53,0.00,,SKC,0.00,VWS V14.01,2013-07-07 18:38:00,
2013-07-07 14:43:00,92.3,71.6,30.02,ENE,75,13.0,18.0,51,0.00,,SKC,0.00,VWS V14.01,2013-07-07 18:43:00,
2013-07-07 14:48:00,91.9,71.8,30.02,NE,36,9.0,18.0,52,0.00,,SKC,0.00,VWS V14.01,2013-07-07 18:48:00,
2013-07-07 14:53:00,92.0,71.3,30.02,ENE,57,18.0,20.0,51,0.00,,SKC,0.00,VWS V14.01,2013-07-07 18:53:00,
2013-07-07 14:58:00,91.9,72.3,30.02,ESE,118,12.0,20.0,53,0.00,,SKC,0.00,VWS V14.01,2013-07-07 18:58:00,
2013-07-07 15:03:00,92.0,72.4,30.02,East,96,7.0,18.0,53,0.00,,SKC,0.00,VWS V14.01,2013-07-07 19:03:00,
2013-07-07 15:08:00,92.0,71.9,30.02,ENE,62,8.0,18.0,52,0.00,,SKC,0.00,VWS V14.01,2013-07-07 19:08:00,
2013-07-07 15:13:00,92.1,73.1,30.02,ESE,115,4.0,18.0,54,0.00,,SKC,0.00,VWS V14.01,2013-07-07 19:13:00,
2013-07-07 15:18:00,93.1,72.9,30.01,NE,56,9.0,18.0,52,0.00,,SKC,0.00,VWS V14.01,2013-07-07 19:18:00,
2013-07-07 15:23:00,92.8,72.6,30.01,ENE,58,9.0,20.0,52,0.00,,SKC,0.00,VWS V14.01,2013-07-07 19:23:00,
2013-07-07 15:28:00,92.4,72.8,30.01,NE,43,10.0,20.0,53,0.00,,SKC,0.00,VWS V14.01,2013-07-07 19:28:00,
2013-07-07 15:33:00,92.2,73.7,30.01,ENE,61,5.0,22.0,55,0.00,,SKC,0.00,VWS V14.01,2013-07-07 19:33:00,
2013-07-07 15:38:00,90.9,73.6,30.01,ENE,59,16.0,24.0,57,0.00,,SKC,0.00,VWS V14.01,2013-07-07 19:38:00,
2013-07-07 15:43:00,89.5,74.8,30.01,NE,40,6.0,24.0,62,0.00,,SKC,0.00,VWS V14.01,2013-07-07 19:43:00,
2013-07-07 15:48:00,88.1,74.4,30.01,NE,56,10.0,24.0,64,0.00,,SKC,0.00,VWS V14.01,2013-07-07 19:48:00,
2013-07-07 15:53:00,87.7,74.5,30.01,ENE,69,14.0,24.0,65,0.00,,SKC,0.00,VWS V14.01,2013-07-07 19:53:00,
2013-07-07 15:58:00,88.2,75.4,30.01,NNE,23,9.0,24.0,66,0.00,,SKC,0.00,VWS V14.01,2013-07-07 19:58:00,
2013-07-07 16:03:00,88.9,76.1,30.01,NNE,30,5.0,13.0,66,0.00,,SKC,0.00,VWS V14.01,2013-07-07 20:03:00,
2013-07-07 16:08:00,90.5,77.1,30.00,NE,45,6.0,13.0,65,0.00,,SKC,0.00,VWS V14.01,2013-07-07 20:08:00,
2013-07-07 16:13:00,90.8,75.0,30.00,NE,51,5.0,16.0,60,0.00,,SKC,0.00,VWS V14.01,2013-07-07 20:13:00,
2013-07-07 16:18:00,90.8,75.0,30.01,NE,36,5.0,16.0,60,0.00,,SKC,0.00,VWS V14.01,2013-07-07 20:18:00,
2013-07-07 16:23:00,90.5,73.2,30.00,NE,54,7.0,16.0,57,0.00,,SKC,0.00,VWS V14.01,2013-07-07 20:23:00,
2013-07-07 16:28:00,90.5,74.2,30.00,NE,43,10.0,16.0,59,0.00,,SKC,0.00,VWS V14.01,2013-07-07 20:28:00,
2013-07-07 16:33:00,89.9,71.0,30.00,NE,54,12.0,15.0,54,0.00,,SKC,0.00,VWS V14.01,2013-07-07 20:33:00,
2013-07-07 16:38:00,89.5,71.7,30.00,ENE,63,7.0,15.0,56,0.00,,SKC,0.00,VWS V14.01,2013-07-07 20:38:00,
2013-07-07 16:43:00,89.5,71.2,30.00,ENE,57,9.0,15.0,55,0.00,,SKC,0.00,VWS V14.01,2013-07-07 20:43:00,
2013-07-07 16:48:00,89.4,71.1,30.00,ENE,69,2.0,15.0,55,0.00,,SKC,0.00,VWS V14.01,2013-07-07 20:48:00,
2013-07-07 16:53:00,89.3,71.0,30.00,NNE,26,7.0,15.0,55,0.00,,SKC,0.00,VWS V14.01,2013-07-07 20:53:00,
2013-07-07 16:58:00,89.0,71.8,30.00,ENE,74,9.0,15.0,57,0.00,,SKC,0.00,VWS V14.01,2013-07-07 20:58:00,
2013-07-07 17:03:00,89.3,72.6,29.99,NE,51,8.0,10.0,58,0.00,,SKC,0.00,VWS V14.01,2013-07-07 21:03:00,
2013-07-07 17:04:00,89.3,72.6,29.99,ESE,105,4.0,10.0,58,0.00,,SKC,0.00,VWS V14.01,2013-07-07 21:04:00,
2013-07-07 17:09:00,89.6,72.4,29.99,ENE,74,5.0,12.0,57,0.00,,SKC,0.00,VWS V14.01,2013-07-07 21:09:00,
2013-07-07 17:14:00,89.9,72.1,29.99,East,99,6.0,16.0,56,0.00,,SKC,0.00,VWS V14.01,2013-07-07 21:14:00,
2013-07-07 17:19:00,90.2,69.6,29.99,ENE,69,9.0,19.0,51,0.00,,SKC,0.00,VWS V14.01,2013-07-07 21:19:00,
2013-07-07 17:24:00,90.0,70.6,29.99,ESE,115,6.0,19.0,53,0.00,,SKC,0.00,VWS V14.01,2013-07-07 21:24:00,
2013-07-07 17:29:00,90.3,69.7,29.99,East,94,11.0,19.0,51,0.00,,SKC,0.00,VWS V14.01,2013-07-07 21:29:00,
2013-07-07 17:34:00,90.2,70.2,29.99,NE,50,5.0,13.0,52,0.00,,SKC,0.00,VWS V14.01,2013-07-07 21:34:00,
2013-07-07 17:39:00,89.8,69.8,29.99,ENE,61,8.0,14.0,52,0.00,,SKC,0.00,VWS V14.01,2013-07-07 21:39:00,
2013-07-07 17:44:00,90.2,71.3,29.99,East,81,14.0,16.0,54,0.00,,SKC,0.00,VWS V14.01,2013-07-07 21:44:00,
2013-07-07 17:49:00,90.6,71.7,29.99,East,90,13.0,16.0,54,0.00,,SKC,0.00,VWS V14.01,2013-07-07 21:49:00,
2013-07-07 17:54:00,90.9,71.4,29.99,ENE,63,5.0,18.0,53,0.00,,SKC,0.00,VWS V14.01,2013-07-07 21:54:00,
2013-07-07 17:59:00,90.9,71.4,29.99,East,82,4.0,18.0,53,0.00,,SKC,0.00,VWS V14.01,2013-07-07 21:59:00,
2013-07-07 18:04:00,91.3,71.8,29.99,East,87,6.0,11.0,53,0.00,,SKC,0.00,VWS V14.01,2013-07-07 22:04:00,
2013-07-07 18:09:00,91.2,71.7,29.99,ENE,68,4.0,13.0,53,0.00,,SKC,0.00,VWS V14.01,2013-07-07 22:09:00,
2013-07-07 18:14:00,90.8,75.0,29.99,ESE,107,7.0,13.0,60,0.00,,SKC,0.00,VWS V14.01,2013-07-07 22:14:00,
2013-07-07 18:19:00,88.9,74.2,30.00,NE,44,14.0,16.0,62,0.00,,SKC,0.00,VWS V14.01,2013-07-07 22:19:00,
2013-07-07 18:24:00,86.8,75.0,30.00,ENE,78,14.0,20.0,68,0.00,,SKC,0.00,VWS V14.01,2013-07-07 22:24:00,
2013-07-07 18:29:00,83.8,75.4,30.00,ENE,61,14.0,20.0,76,0.00,,SKC,0.00,VWS V14.01,2013-07-07 22:29:00,
2013-07-07 18:34:00,82.5,75.7,30.00,East,94,7.0,14.0,80,0.00,,SKC,0.00,VWS V14.01,2013-07-07 22:34:00,
2013-07-07 18:39:00,81.9,74.4,30.00,NNE,32,2.0,14.0,78,0.00,,SKC,0.00,VWS V14.01,2013-07-07 22:39:00,
2013-07-07 18:44:00,81.6,74.5,30.00,ENE,77,4.0,14.0,79,0.00,,SKC,0.00,VWS V14.01,2013-07-07 22:44:00,
2013-07-07 18:49:00,81.7,74.9,30.00,NNE,28,0.0,14.0,80,0.00,,SKC,0.00,VWS V14.01,2013-07-07 22:49:00,
2013-07-07 18:54:00,81.7,74.9,30.00,ENE,57,0.0,14.0,80,0.00,,SKC,0.00,VWS V14.01,2013-07-07 22:54:00,
2013-07-07 18:59:00,82.1,75.7,30.00,ENE,74,0.0,14.0,81,0.00,,SKC,0.00,VWS V14.01,2013-07-07 22:59:00,
2013-07-07 19:04:00,82.4,75.2,30.00,NE,46,6.0,7.0,79,0.00,,SKC,0.00,VWS V14.01,2013-07-07 23:04:00,
2013-07-07 19:09:00,82.5,74.9,30.00,ENE,70,1.0,8.0,78,0.00,,SKC,0.00,VWS V14.01,2013-07-07 23:09:00,
2013-07-07 19:14:00,82.8,75.2,29.99,ESE,111,1.0,9.0,78,0.00,,SKC,0.00,VWS V14.01,2013-07-07 23:14:00,
2013-07-07 19:19:00,82.9,75.7,29.99,ENE,71,2.0,9.0,79,0.00,,SKC,0.00,VWS V14.01,2013-07-07 23:19:00,
2013-07-07 19:24:00,82.8,75.6,30.00,ENE,78,0.0,9.0,79,0.00,,SKC,0.00,VWS V14.01,2013-07-07 23:24:00,
2013-07-07 19:29:00,82.8,75.6,30.00,NE,50,0.0,9.0,79,0.00,,SKC,0.00,VWS V14.01,2013-07-07 23:29:00,
2013-07-07 19:34:00,82.8,75.6,30.00,ENE,78,0.0,2.0,79,0.00,,SKC,0.00,VWS V14.01,2013-07-07 23:34:00,
2013-07-07 19:39:00,82.8,75.6,30.00,ENE,60,2.0,5.0,79,0.00,,SKC,0.00,VWS V14.01,2013-07-07 23:39:00,
2013-07-07 19:44:00,82.8,75.2,30.01,NE,45,0.0,5.0,78,0.00,,SKC,0.00,VWS V14.01,2013-07-07 23:44:00,
2013-07-07 19:49:00,82.7,75.2,30.01,NE,48,0.0,5.0,78,0.00,,SKC,0.00,VWS V14.01,2013-07-07 23:49:00,
2013-07-07 19:54:00,82.7,75.2,30.01,ENE,64,0.0,5.0,78,0.00,,SKC,0.00,VWS V14.01,2013-07-07 23:54:00,
2013-07-07 19:59:00,82.7,74.8,30.01,ENE,71,0.0,5.0,77,0.00,,SKC,0.00,VWS V14.01,2013-07-07 23:59:00,
2013-07-07 20:04:00,82.7,74.8,30.01,NNE,14,0.0,1.0,77,0.00,,SKC,0.00,VWS V14.01,2013-07-08 00:04:00,
2013-07-07 20:09:00,82.7,74.8,30.02,NNE,26,0.0,1.0,77,0.00,,SKC,0.00,VWS V14.01,2013-07-08 00:09:00,
2013-07-07 20:14:00,82.4,74.9,30.02,NNE,26,0.0,1.0,78,0.00,,SKC,0.00,VWS V14.01,2013-07-08 00:14:00,
2013-07-07 20:19:00,82.3,74.8,30.02,NE,44,1.0,2.0,78,0.00,,SKC,0.00,VWS V14.01,2013-07-08 00:19:00,
2013-07-07 20:24:00,82.2,75.0,30.02,NE,36,2.0,4.0,79,0.00,,SKC,0.00,VWS V14.01,2013-07-08 00:24:00,
2013-07-07 20:29:00,82.2,75.0,30.02,NNW,340,0.0,4.0,79,0.00,,SKC,0.00,VWS V14.01,2013-07-08 00:29:00,
2013-07-07 20:34:00,82.0,74.8,30.02,NE,40,0.0,2.0,79,0.00,,SKC,0.00,VWS V14.01,2013-07-08 00:34:00,
2013-07-07 20:39:00,82.0,74.8,30.03,NE,38,0.0,4.0,79,0.00,,SKC,0.00,VWS V14.01,2013-07-08 00:39:00,
2013-07-07 20:44:00,81.8,75.0,30.03,ENE,59,0.0,4.0,80,0.00,,SKC,0.00,VWS V14.01,2013-07-08 00:44:00,
2013-07-07 20:49:00,81.7,75.3,30.03,NE,37,0.0,4.0,81,0.00,,SKC,0.00,VWS V14.01,2013-07-08 00:49:00,
2013-07-07 20:54:00,81.5,75.5,30.03,NE,48,2.0,4.0,82,0.00,,SKC,0.00,VWS V14.01,2013-07-08 00:54:00,
2013-07-07 20:59:00,81.5,75.1,30.03,NE,42,0.0,7.0,81,0.00,,SKC,0.00,VWS V14.01,2013-07-08 00:59:00,
2013-07-07 21:04:00,81.6,74.8,30.04,East,91,4.0,8.0,80,0.00,,SKC,0.00,VWS V14.01,2013-07-08 01:04:00,
2013-07-07 21:09:00,81.8,74.7,30.04,ENE,74,0.0,8.0,79,0.00,,SKC,0.00,VWS V14.01,2013-07-08 01:09:00,
2013-07-07 21:14:00,82.0,74.8,30.04,ESE,119,1.0,8.0,79,0.00,,SKC,0.00,VWS V14.01,2013-07-08 01:14:00,
2013-07-07 21:19:00,82.0,74.5,30.05,ESE,116,0.0,8.0,78,0.00,,SKC,0.00,VWS V14.01,2013-07-08 01:19:00,
2013-07-07 21:24:00,81.8,74.7,30.05,SSE,156,0.0,8.0,79,0.00,,SKC,0.00,VWS V14.01,2013-07-08 01:24:00,
2013-07-07 21:29:00,81.5,74.7,30.05,ESE,110,1.0,8.0,80,0.00,,SKC,0.00,VWS V14.01,2013-07-08 01:29:00,
2013-07-07 21:34:00,81.1,74.7,30.05,ESE,110,0.0,0.0,81,0.00,,SKC,0.00,VWS V14.01,2013-07-08 01:34:00,
2013-07-07 21:39:00,80.8,74.4,30.05,East,92,0.0,1.0,81,0.00,,SKC,0.00,VWS V14.01,2013-07-08 01:39:00,
2013-07-07 21:44:00,80.4,74.4,30.05,East,92,0.0,1.0,82,0.00,,SKC,0.00,VWS V14.01,2013-07-08 01:44:00,
2013-07-07 21:49:00,80.3,74.3,30.06,East,92,0.0,1.0,82,0.00,,SKC,0.00,VWS V14.01,2013-07-08 01:49:00,
2013-07-07 21:54:00,80.3,74.3,30.06,NNE,32,0.0,2.0,82,0.00,,SKC,0.00,VWS V14.01,2013-07-08 01:54:00,
2013-07-07 21:59:00,80.1,74.1,30.06,NNE,32,0.0,2.0,82,0.00,,SKC,0.00,VWS V14.01,2013-07-08 01:59:00,
2013-07-07 22:04:00,79.9,73.9,30.06,NNE,32,0.0,0.0,82,0.00,,SKC,0.00,VWS V14.01,2013-07-08 02:04:00,
2013-07-07 22:09:00,79.9,73.9,30.06,NE,36,0.0,0.0,82,0.00,,SKC,0.00,VWS V14.01,2013-07-08 02:09:00,
2013-07-07 22:14:00,80.0,74.0,30.06,NE,43,0.0,1.0,82,0.00,,SKC,0.00,VWS V14.01,2013-07-08 02:14:00,
2013-07-07 22:19:00,80.1,74.1,30.06,NNE,18,0.0,4.0,82,0.00,,SKC,0.00,VWS V14.01,2013-07-08 02:19:00,
2013-07-07 22:24:00,80.1,74.1,30.06,NE,47,0.0,4.0,82,0.00,,SKC,0.00,VWS V14.01,2013-07-08 02:24:00,
2013-07-07 22:29:00,80.0,74.0,30.06,NE,35,2.0,4.0,82,0.00,,SKC,0.00,VWS V14.01,2013-07-08 02:29:00,
2013-07-07 22:34:00,80.1,74.1,30.07,ENE,59,1.0,4.0,82,0.00,,SKC,0.00,VWS V14.01,2013-07-08 02:34:00,
2013-07-07 22:39:00,80.2,73.8,30.07,NE,37,1.0,4.0,81,0.00,,SKC,0.00,VWS V14.01,2013-07-08 02:39:00,
2013-07-07 22:44:00,80.1,73.8,30.07,NE,48,1.0,4.0,81,0.00,,SKC,0.00,VWS V14.01,2013-07-08 02:44:00,
2013-07-07 22:49:00,80.1,73.8,30.08,NE,39,0.0,4.0,81,0.00,,SKC,0.00,VWS V14.01,2013-07-08 02:49:00,
2013-07-07 22:54:00,80.1,73.8,30.08,NNE,26,0.0,4.0,81,0.00,,SKC,0.00,VWS V14.01,2013-07-08 02:54:00,
2013-07-07 22:59:00,79.9,73.6,30.08,NE,34,0.0,5.0,81,0.00,,SKC,0.00,VWS V14.01,2013-07-08 02:59:00,
2013-07-07 23:04:00,79.7,73.7,30.08,North,360,0.0,1.0,82,0.00,,SKC,0.00,VWS V14.01,2013-07-08 03:04:00,
2013-07-07 23:09:00,79.5,73.9,30.08,NNE,32,1.0,1.0,83,0.00,,SKC,0.00,VWS V14.01,2013-07-08 03:09:00,
2013-07-07 23:14:00,79.4,73.8,30.09,NE,51,0.0,2.0,83,0.00,,SKC,0.00,VWS V14.01,2013-07-08 03:14:00,
2013-07-07 23:19:00,79.2,73.9,30.09,NE,51,2.0,2.0,84,0.00,,SKC,0.00,VWS V14.01,2013-07-08 03:19:00,
2013-07-07 23:24:00,79.0,73.8,30.09,NE,51,0.0,2.0,84,0.00,,SKC,0.00,VWS V14.01,2013-07-08 03:24:00,
2013-07-07 23:29:00,78.9,73.7,30.09,NE,50,0.0,2.0,84,0.00,,SKC,0.00,VWS V14.01,2013-07-08 03:29:00,
2013-07-07 23:34:00,78.9,74.0,30.09,NE,42,0.0,3.0,85,0.00,,SKC,0.00,VWS V14.01,2013-07-08 03:34:00,
2013-07-07 23:39:00,78.8,73.9,30.10,NE,42,0.0,3.0,85,0.00,,SKC,0.00,VWS V14.01,2013-07-08 03:39:00,
2013-07-07 23:44:00,78.6,74.1,30.10,NE,40,1.0,3.0,86,0.00,,SKC,0.00,VWS V14.01,2013-07-08 03:44:00,
2013-07-07 23:49:00,78.5,74.0,30.10,NE,40,0.0,3.0,86,0.00,,SKC,0.00,VWS V14.01,2013-07-08 03:49:00,
2013-07-07 23:54:00,78.4,73.9,30.10,NE,40,0.0,3.0,86,0.00,,SKC,0.00,VWS V14.01,2013-07-08 03:54:00,
2013-07-07 23:59:00,78.3,73.8,30.10,NE,40,0.0,3.0,86,0.00,,SKC,0.00,VWS V14.01,2013-07-08 03:59:00,